OpenBCM V1.07b12 (Linux)

Packet Radio Mailbox

DB0FHN

[JN59NK Nuernberg]

 Login: GUEST





  
CX2SA  > KEPS     17.09.04 04:34l 165 Lines 7768 Bytes #999 (0) @ AMSAT
BID : ORB04260.N
Read: GUEST DL7NDR
Subj: 2Line Orbital Elements 04260.AMSAT
Path: DB0FHN<DB0MRW<OK0PPL<DB0RES<ON0AR<EB2BJX<ED1ZAC<CX2SA
Sent: 040917/0327Z @:CX2SA.LAV.URY.SA #:14921 [Minas] FBB7.00e $:ORB04260.N
From: CX2SA@CX2SA.LAV.URY.SA
To  : KEPS@AMSAT


HR AMSAT ORBITAL ELEMENTS FOR AMATEUR SATELLITES IN NASA FORMAT
FROM WA5QGD FORT WORTH,TX September 16, 2004
SEND SUBSCRIBE/UNSUBSCRIBE TO majordomo@amsat.org ONLY
BID: ORB04260.N

DECODE 2-LINE ELSETS WITH THE FOLLOWING KEY:
1 AAAAAU 00  0  0 BBBBB.BBBBBBBB  .CCCCCCCC  00000-0  00000-0 0  DDDZ
2 AAAAA EEE.EEEE FFF.FFFF GGGGGGG HHH.HHHH III.IIII JJ.JJJJJJJJKKKKKZ
KEY: A-CATALOGNUM B-EPOCHTIME C-DECAY D-ELSETNUM E-INCLINATION F-RAAN
G-ECCENTRICITY H-ARGPERIGEE I-MNANOM J-MNMOTION K-ORBITNUM Z-CHECKSUM

TO ALL RADIO AMATEURS BT

AO-07
1 07530U 74089B   04259.69767175 -.00000029  00000-0  10000-3 0 03261
2 07530 101.6725 304.9912 0012152 047.6767 312.5332 12.53568801365254
AO-10
1 14129U 83058B   04258.97384067 -.00000324  00000-0  10000-3 0  1035
2 14129  26.6255  71.5972 6029559 124.1478 308.3127  2.05870813159866
UO-11
1 14781U 84021B   04260.50627829  .00000387  00000-0  59723-4 0  5823
2 14781  98.1820 246.8928 0009882 153.0026 207.1692 14.78996627101349
RS-10/11
1 18129U 87054A   04260.18613243  .00000036  00000-0  22420-4 0  5017
2 18129  82.9190  80.8113 0013398  67.2721 292.9848 13.72744340863488
FO-20
1 20480U 90013C   04260.12570709  .00000008  00000-0  83545-4 0  7108
2 20480  99.0405 120.4048 0540627 140.7911 223.3669 12.83341850684340
RS-12/13
1 21089U 91007A   04259.94103431  .00000033  00000-0  18898-4 0 07387
2 21089 082.9193 114.4302 0030133 120.9280 239.4844 13.74440966682825
RS-15
1 23439U 94085A   04260.87934549 -.00000039  00000-0  10597-3 0  8063
2 23439  64.8152 189.5445 0155348   4.8124 355.4243 11.27549814400574
FO-29
1 24278U 96046B   04259.83916952 -.00000011  00000-0  23519-4 0  7985
2 24278  98.5835 339.9283 0350672 166.7703 194.2930 13.52903346399097
SO-33
1 25509U 98061B   04259.99078966  .00000198  00000-0  25871-4 0  1963
2 25509  31.4322 142.3265 0356209 289.6384  66.6167 14.27864298307605
AO-40
1 26609U 00072B   04259.42580772 -.00000110  00000-0  10000-3 0  4359
2 26609   9.7703 343.0238 7966699 320.3876   3.3706  1.25585724 17809
UO-14
1 20437U 90005B   04259.68698891 -.00000031  00000-0  37743-5 0  5928
2 20437  98.2072 278.6359 0009862 294.0306  65.9844 14.31370218764761
AO-16
1 20439U 90005D   04260.16098710  .00000059  00000-0  37393-4 0  2802
2 20439  98.2397 293.7110 0010369 302.0239  57.9941 14.31628573764887
WO-18
1 20441U 90005F   04259.97027639  .00000017  00000-0  21818-4 0  4670
2 20441  98.2539 297.5771 0010903 303.3083  56.7055 14.31703518764918
LO-19
1 20442U 90005G   04260.16095106  .00000042  00000-0  31044-4 0  2238
2 20442  98.2682 301.8293 0011486 301.8723  58.1342 14.31874932765002
UO-22
1 21575U 91050B   04260.46828664  .00000072  00000-0  36538-4 0  2059
2 21575  98.2025 230.7471 0007381 186.5673 173.5432 14.39413364691129
KO-23
1 22077U 92052B   04259.78856044 -.00000037  00000-0  10000-3 0 03515
2 22077 066.0893 001.1078 0008991 321.0371 038.9999 12.86425127568298
AO-27
1 22825U 93061C   04260.58160339  .00000119  00000-0  63157-4 0  9419
2 22825  98.2444 264.7365 0008194   1.3033 358.8159 14.29085234572143
IO-26
1 22826U 93061D   04260.58890233  .00000077  00000-0  46363-4 0  6200
2 22826  98.2439 266.0271 0009458 358.2350   1.8798 14.29321404572202
KO-25
1 22828U 93061F   04260.50661637  .00000035  00000-0  29372-4 0  8777
2 22828  98.2355 266.1854 0009520 335.5197  24.5531 14.29641434540419
TO-31
1 25396U 98043C   04259.96023660 -.00000043  00000-0  00000-0 0 01216
2 25396 098.5687 328.9455 0001517 243.0066 117.0959 14.23632765321390
GO-32
1 25397U 98043D   04259.79077227  .00000119  00000-0  71717-4 0  5591
2 25397  98.5601 326.7981 0000257 213.7868 146.3325 14.23051703321301
UO-36
1 25693U 99021A   04260.99818082  .00000099  00000-0  33015-4 0  4565
2 25693  64.5592  42.6225 0046527 247.2347 112.3839 14.78382911291432
SO-41
1 26545U 00057A   04260.51474780  .00000241  00000-0  50694-4 0  8783
2 26545  64.5571  60.3927 0018852 356.6020   3.4939 14.79853909214421
MO-46
1 26548U 00057D   04260.66724007  .00000607  00000-0  93431-4 0  9785
2 26548  64.5577  45.9473 0019321 337.3269  22.6960 14.82404673214733
SO-42
1 26549U 00057E   04259.96017456  .00000270  00000-0  55746-4 0 09626
2 26549 064.5505 069.2388 0018779 012.4509 347.7057 14.78746581214205
NO-44
1 26931U 01043C   04258.76759196 -.00000081  00000-0  58018-6 0  8557
2 26931  67.0519 217.1115 0006516 269.8326  90.2028 14.29319791154404
AO-49
1 27605U 02058A   04260.47485174  .00000216  00000-0  54587-4 0  5388
2 27605  64.5561 247.4629 0082491 293.4784  65.7670 14.71927162 93568
SO-50
1 27607U 02058C   04259.96515537  .00000518  00000-0  10258-3 0 05199
2 27607 064.5566 253.1162 0083684 292.5668 066.6622 14.70719245093407
AO-51
1 28375U 04025K   04259.74435255  .00000060  00000-0  31442-4 0   615
2 28375  98.2527 326.6205 0084171 340.3912  19.4069 14.40388313 11104
NOAA-10
1 16969U 86073A   04260.49720037 -.00000033  00000-0  47311-5 0  3957
2 16969  98.7593 259.6831 0012031 206.1061 153.9514 14.27211912936052
NOAA-11
1 19531U 88089A   04260.45288056 -.00000089  00000-0 -23388-4 0  2521
2 19531  98.8639 343.7396 0011546  11.5467 348.5961 14.14727376824226
NOAA-12
1 21263U 91032A   04260.49492047  .00000153  00000-0  83498-4 0  7397
2 21263  98.6761 247.3359 0013360 141.6673 218.5462 14.25412381693251
MET-3/5
1 21655U 91056A   04260.60909293  .00000051  00000-0  10000-3 0  6492
2 21655  82.5604 351.9303 0012607 194.4048 165.6717 13.16996064629304
MET-2/21
1 22782U 93055A   04260.69525371  .00000075  00000-0  54448-4 0    63
2 22782  82.5460 117.9468 0022640 167.3126 192.8598 13.83569584557757
OKEAN-4
1 23317U 94066A   04259.96487469  .00000489  00000-0  58625-4 0 04428
2 23317 082.5422 153.0310 0022036 323.7410 036.2309 14.81880467535291
NOAA-14
1 23455U 94089A   04260.35508079  .00000201  00000-0  13139-3 0  2826
2 23455  99.1320 297.6635 0009917  55.2224 304.9865 14.13488794500817
SICH-1
1 23657U 95046A   04259.93814241  .00000437  00000-0  53276-4 0 02566
2 23657 082.5276 293.8601 0023105 307.2815 052.6291 14.80915123487368
NOAA-15
1 25338U 98030A   04260.48217654  .00000090  00000-0  57311-4 0  7314
2 25338  98.5203 271.1009 0011670  78.9571 281.2938 14.24451150329781
RESURS
1 25394U 98043A   04260.61034886  .00000020  00000-0  27223-4 0  9021
2 25394  98.5744 331.1292 0001050 187.9701 172.1463 14.24022309321515
FENGYUN1
1 25730U 99025A   04260.85350461  .00000304  00000-0  18924-3 0  2342
2 25730  98.6075 267.6302 0014866 157.3257 202.8552 14.11780254275949
OKEAN-0
1 25860U 99039A   04259.96903984  .00000181  00000-0  35423-4 0 02656
2 25860 097.7913 291.4898 0001890 060.8105 299.3292 14.73113330277635
NOAA-16
1 26536U 00055A   04260.45175293 -.00000088  00000-0 -23637-4 0   264
2 26536  98.9712 211.9258 0011349 117.0832 243.1498 14.12150680205420
NOAA-17
1 27453U 02032A   04260.53651936  .00000166  00000-0  91992-4 0   514
2 27453  98.6934 331.7812 0012685 127.4820 232.7520 14.23569504115909
HUBBLE
1 20580U 90037B   04259.44862953  .00000942  00000-0  62130-4 0  1549
2 20580  28.4700 258.4054 0005256 232.8660 127.1525 14.99301364588960
UARS
1 21701U 91063B   04260.56913646 -.00000134  00000-0  89939-5 0  2672
2 21701  56.9780 219.0515 0005434 114.1144 246.0469 15.03615572712335
PO-34
1 25520U 98064B   04260.32669724  .00001365  00000-0  59790-4 0   127
2 25520  28.4599 342.5367 0005587 127.7001 232.4122 15.15733439324989
ISS
1 25544U 98067A   04260.95096722  .00023470  00000-0  19724-3 0  7059
2 25544  51.6345 217.3566 0005382 156.3543 317.3004 15.69757874332736
OO-38
1 26063U 00004C   04260.03438269  .00000043  00000-0  35143-4 0  1616
2 26063 100.2233  63.6089 0037414 106.7845 253.7453 14.35667518242959
NO-45
1 26932U 01043D   04260.99656867 -.00000042  00000-0  15800-4 0  8510
2 26932  67.0568 211.0140 0005125 283.4922  76.5733 14.29441259154752


Read previous mail | Read next mail


 20.12.2025 02:23:14lGo back Go up